TimeEDT,TemperatureF,Dew PointF,Humidity,Sea Level PressureIn,VisibilityMPH,Wind Direction,Wind SpeedMPH,Gust SpeedMPH,PrecipitationIn,Events,Conditions,WindDirDegrees,DateUTC
12:14 AM,57.2,51.8,82,29.91,10.0,WNW,17.3,23.0,N/A,,Overcast,290,2012-10-26 04:14:00
12:35 AM,55.4,51.8,88,29.92,10.0,WNW,11.5,21.9,N/A,,Overcast,290,2012-10-26 04:35:00
12:54 AM,53.6,50.0,88,29.94,7.0,NW,17.3,23.0,N/A,Rain,Rain,310,2012-10-26 04:54:00
1:15 AM,51.8,46.4,82,29.96,10.0,NW,16.1,24.2,N/A,Rain,Light Rain,310,2012-10-26 05:15:00
1:35 AM,48.2,46.4,93,29.96,10.0,NW,12.7,20.7,N/A,,Overcast,320,2012-10-26 05:35:00
1:54 AM,48.2,46.4,93,29.98,10.0,NNW,10.4,-,N/A,,Drizzle,330,2012-10-26 05:54:00
2:15 AM,48.2,46.4,93,29.99,7.0,NW,6.9,-,N/A,Rain,Heavy Rain,310,2012-10-26 06:15:00
2:35 AM,46.4,44.6,93,30.00,5.0,NW,8.1,17.3,N/A,Rain,Heavy Rain,310,2012-10-26 06:35:00
2:54 AM,46.4,44.6,93,30.04,4.0,West,9.2,17.3,N/A,Rain,Heavy Rain,280,2012-10-26 06:54:00
3:15 AM,46.4,44.6,93,30.04,4.0,NW,11.5,17.3,N/A,Rain,Heavy Rain,320,2012-10-26 07:15:00
3:35 AM,44.6,44.6,100,30.03,10.0,NNW,11.5,-,N/A,Rain,Light Rain,330,2012-10-26 07:35:00
3:54 AM,44.6,44.6,100,30.04,10.0,NNW,11.5,-,N/A,Rain,Rain,330,2012-10-26 07:54:00
4:15 AM,44.6,42.8,93,30.06,10.0,NW,8.1,18.4,N/A,,Overcast,310,2012-10-26 08:15:00
4:35 AM,44.6,42.8,93,30.06,10.0,NW,10.4,17.3,N/A,,Overcast,320,2012-10-26 08:35:00
4:54 AM,44.6,42.8,93,30.08,10.0,NW,10.4,16.1,N/A,Rain,Light Rain,320,2012-10-26 08:54:00
5:15 AM,44.6,42.8,93,30.09,10.0,NW,6.9,-,N/A,Rain,Light Rain,310,2012-10-26 09:15:00
5:34 AM,44.6,41.0,87,30.10,10.0,NW,11.5,20.7,N/A,,Overcast,310,2012-10-26 09:34:00
5:55 AM,42.8,39.2,87,30.08,10.0,NNW,17.3,23.0,N/A,,Overcast,330,2012-10-26 09:55:00
6:15 AM,42.8,39.2,87,30.10,10.0,NW,10.4,-,N/A,,Overcast,320,2012-10-26 10:15:00
6:34 AM,42.8,39.2,87,30.11,10.0,NNW,9.2,18.4,N/A,,Overcast,330,2012-10-26 10:34:00
6:55 AM,42.8,39.2,87,30.13,10.0,NNW,10.4,-,N/A,,Overcast,330,2012-10-26 10:55:00
7:15 AM,42.8,37.4,81,30.14,10.0,NNW,11.5,21.9,N/A,,Overcast,330,2012-10-26 11:15:00
7:34 AM,42.8,37.4,81,30.17,10.0,NNW,10.4,16.1,N/A,,Overcast,340,2012-10-26 11:34:00
7:55 AM,42.8,37.4,81,30.17,10.0,NNW,6.9,-,N/A,,Overcast,330,2012-10-26 11:55:00
8:15 AM,42.8,39.2,87,30.17,10.0,NNW,6.9,-,N/A,,Overcast,330,2012-10-26 12:15:00
8:55 AM,42.8,37.4,81,30.17,10.0,North,12.7,20.7,N/A,,Overcast,350,2012-10-26 12:55:00
9:55 AM,42.8,35.6,76,30.20,10.0,NNW,11.5,-,N/A,,Overcast,340,2012-10-26 13:55:00
10:14 AM,42.8,35.6,76,30.21,10.0,NW,10.4,-,N/A,,Overcast,320,2012-10-26 14:14:00
10:35 AM,42.8,35.6,76,30.22,10.0,North,11.5,16.1,N/A,,Overcast,350,2012-10-26 14:35:00
10:55 AM,44.6,35.6,71,30.23,10.0,North,10.4,-,N/A,,Overcast,10,2012-10-26 14:55:00
11:14 AM,44.6,35.6,71,30.23,10.0,NNW,12.7,16.1,N/A,,Overcast,330,2012-10-26 15:14:00
11:35 AM,44.6,35.6,71,30.24,10.0,NNW,12.7,-,N/A,,Mostly Cloudy,340,2012-10-26 15:35:00
11:55 AM,46.4,35.6,66,30.24,10.0,NNW,12.7,17.3,N/A,,Scattered Clouds,330,2012-10-26 15:55:00
12:15 PM,46.4,33.8,62,30.24,10.0,North,9.2,-,N/A,,Mostly Cloudy,350,2012-10-26 16:15:00
12:35 PM,46.4,33.8,62,30.24,10.0,NNW,10.4,17.3,N/A,,Scattered Clouds,330,2012-10-26 16:35:00
12:54 PM,46.4,35.6,66,30.24,10.0,North,10.4,-,N/A,,Scattered Clouds,350,2012-10-26 16:54:00
1:15 PM,46.4,33.8,62,30.24,10.0,North,12.7,16.1,N/A,,Scattered Clouds,10,2012-10-26 17:15:00
1:35 PM,48.2,33.8,58,30.23,10.0,North,5.8,11.5,N/A,,Scattered Clouds,360,2012-10-26 17:35:00
1:54 PM,48.2,33.8,58,30.23,10.0,North,9.2,20.7,N/A,,Scattered Clouds,350,2012-10-26 17:54:00
2:15 PM,48.2,33.8,58,30.22,10.0,North,9.2,18.4,N/A,,Clear,360,2012-10-26 18:15:00
2:35 PM,48.2,33.8,58,30.22,10.0,North,10.4,-,N/A,,Clear,10,2012-10-26 18:35:00
2:54 PM,46.4,33.8,62,30.22,10.0,NNW,12.7,18.4,N/A,,Clear,330,2012-10-26 18:54:00
3:15 PM,46.4,33.8,62,30.23,10.0,NNW,10.4,-,N/A,,Clear,330,2012-10-26 19:15:00
3:35 PM,48.2,33.8,58,30.23,10.0,North,5.8,-,N/A,,Scattered Clouds,10,2012-10-26 19:35:00
3:54 PM,48.2,33.8,58,30.22,10.0,North,6.9,-,N/A,,Clear,360,2012-10-26 19:54:00
4:15 PM,48.2,33.8,58,30.21,10.0,NNE,9.2,-,N/A,,Clear,30,2012-10-26 20:15:00
4:35 PM,48.2,33.8,58,30.21,10.0,North,10.4,-,N/A,,Clear,350,2012-10-26 20:35:00
4:55 PM,46.4,30.2,53,30.21,10.0,North,10.4,-,N/A,,Clear,360,2012-10-26 20:55:00
5:15 PM,46.4,32.0,57,30.22,10.0,North,6.9,-,N/A,,Clear,360,2012-10-26 21:15:00
5:34 PM,46.4,33.8,62,30.21,10.0,NNW,10.4,-,N/A,,Clear,340,2012-10-26 21:34:00
5:55 PM,46.4,30.2,53,30.21,10.0,North,5.8,-,N/A,,Clear,360,2012-10-26 21:55:00
6:15 PM,46.4,30.2,53,30.20,10.0,North,8.1,16.1,N/A,,Clear,360,2012-10-26 22:15:00
6:34 PM,44.6,30.2,57,30.21,10.0,North,5.8,-,N/A,,Clear,10,2012-10-26 22:34:00
6:55 PM,44.6,30.2,57,30.21,10.0,North,4.6,-,N/A,,Clear,10,2012-10-26 22:55:00
7:15 PM,42.8,30.2,61,30.22,10.0,NNE,3.5,-,N/A,,Clear,20,2012-10-26 23:15:00
7:34 PM,42.8,30.2,61,30.22,10.0,NNE,4.6,-,N/A,,Clear,30,2012-10-26 23:34:00
7:55 PM,42.8,30.2,61,30.23,10.0,Calm,Calm,-,N/A,,Clear,0,2012-10-26 23:55:00
8:15 PM,39.2,30.2,70,30.23,10.0,Calm,Calm,-,N/A,,Clear,0,2012-10-27 00:15:00
8:34 PM,39.2,30.2,70,30.23,10.0,NW,3.5,-,N/A,,Clear,320,2012-10-27 00:34:00
9:14 PM,39.2,32.0,75,30.23,10.0,NNW,4.6,-,N/A,,Clear,340,2012-10-27 01:14:00
9:35 PM,37.4,32.0,81,30.23,10.0,Calm,Calm,-,N/A,,Clear,0,2012-10-27 01:35:00
10:14 PM,37.4,33.8,87,30.23,10.0,Calm,Calm,-,N/A,,Clear,0,2012-10-27 02:14:00
10:35 PM,37.4,33.8,87,30.24,10.0,Calm,Calm,-,N/A,,Clear,0,2012-10-27 02:35:00
10:55 PM,39.2,33.8,81,30.24,10.0,North,3.5,-,N/A,,Clear,10,2012-10-27 02:55:00
11:14 PM,39.2,33.8,81,30.24,10.0,North,3.5,-,N/A,,Clear,350,2012-10-27 03:14:00
11:35 PM,39.2,33.8,81,30.24,10.0,North,4.6,-,N/A,,Clear,350,2012-10-27 03:35:00
11:54 PM,39.2,33.8,81,30.25,10.0,North,4.6,-,N/A,,Clear,350,2012-10-27 03:54:00